Погода Корнесты

Погода Корнесты : погода сейчас, прогноз погоды и архив. Всё, что Вы хотите узнать о погоде Корнесты!

Поиск расширенной информации на нашем сайте:

Полезная информация: Натуральный шампунь с имбирем дешево у китайцев!

Другие новости

Новости СМИ2

Главная страница сайта

Новости сайта

03.07.2017

Напоминаем, что на нашем специализированном сайте Метеоцентр.Азия вы можете получить высокодетализированные автоматические прогнозы погоды по пунктам России, СНГ и мира в авиационном формате (включающие направление и скорость ветра, видимость, явления погоды, количество и форму облачности, нижнюю и верхнюю границу облачности).

Рекомендуем: Натуральная косметика Пулана по низким ценам в Украине!

Погода Корнесты - сегодня

Время (UTC), дата Ветер
(°,м/с) 
Видим.   Явления Облачность Т
(°С)
Тd
(°С)
f(%) Тe
(°С)
Pmin
(гПа)
dP
(гПа)
Po
(мм)
O2
(г/м3)
Тmin Tmax R s Состояние
почвы
06 20.07.17 140 (ЮВ) 10 км    ясно 
+24.2 +13.1 50 +30  1014.9  -0.2  741  272  +15.1         
09 20.07.17 220 (ЮЗ) 10 км    1/1 1000 м 
[Cu hum]
+29.6 +10.7 31 +32  1013.7  -0.8  741  267           
12 20.07.17 200 (Ю) 10 км    1/1 1000 м 
[Cu hum]
+30.7 +9.6 27 +32  1012  -1.5  740  266           
15 20.07.17 180 (Ю) 10 км    ясно 
+30.7 +9.6 27 +32  1011.2  -0.8  739  266           
18 20.07.17 160 (Ю) 10 км    3/0 верхняя 
[Ci fib]
+25.6 +9.4 36 +26  1011.9  0.2  739  271    +31.6       
21 20.07.17 120 (ЮВ) 10 км    ясно 
+21.9 +11 50 +25  1012.9  0.7  740  274           
00 21.07.17 110 (В) 10 км    ясно 
+19 +11.8 63 +24  1013.3  0.1  740  276           
03 21.07.17 110 (В) 10 км    ясно 
+18.9 +12.9 68 +26  1013.5  0.2  740  276           
06 21.07.17 190 (Ю) 10 км    ясно 
+26.5 +12.2 41 +31  1013.1  0.3  740  270  +18.3         
09 21.07.17 180 (Ю) 10 км    1/0 верхняя 
[Ci fib]
+30.4 +12.8 34 +36  1013.2  0.4  740  266           
12 21.07.17 180 (Ю) 10 км    ясно 
+32.5 +10.5 26 +35  1012.2  -0.8  740  265           
15 21.07.17 160 (Ю) 10 км    1/0 верхняя 
[Ci fib]
+31.4 +10.2 27 +33  1011.5  -0.8  739  265           
18 21.07.17 160 (Ю) 10 км    1/0 420 м верхняя 
[Ci fib]
+26.7 +9.6 34 +28  1012.6  0.7  740  270    +33.4       
21 21.07.17 120 (ЮВ) 10 км    ясно 
+21.7 +10.8 50 +24  1013.3  0.3  740  274           
00 22.07.17 150 (ЮВ) 10 км    ясно 
+22.6 +9.7 44 +24  1012.6  -0.6  739  273           
03 22.07.17 190 (Ю) 10 км    ясно 
+22.2 +10.4 47 +24  1012.5  -0.2  739  274           
06 22.07.17 230 (ЮЗ) 10 км    1/0 360 м верхняя 
[Ci fib]
+25.2 +13.4 48 +32  1012.5  0.3  740  270  +21.4         
09 22.07.17 280 (З) 10 км    4/0 верхняя 
[Cs]
+27.9 +17.7 54 +42  1012.7  0.5  740  267           
12 22.07.17 330 (СЗ) 10 км    4/0 верхняя 
[Cs]
+31.7 +17.2 42 +45  1011.8  -0.6  739  263           
15 22.07.17 300 (СЗ) 10 км    4/0 средняя, верхняя 
[Ac As|Ci sp]
+31.2 +16.4 41 +43  1011.5  -0.3  739  264           
18 22.07.17 320 (СЗ) 10 км    8/4 600 м средняя 
[Sc|Ac trans]
+25.2 +17.4 62 +39  1013.5  1.4  740  269    +32.7       
21 22.07.17 040 (СВ) 10 км    3/0 верхняя 
[Cs]
+23.7 +16 62 +35  1014.5  0.9  741  271           
00 23.07.17 060 (СВ) 10 км    4/0 верхняя 
[Cs]
+22.1 +15 64 +31  1014.2  -0.5  741  273           
03 23.07.17 070 (В) 10 км    8/1 600 м средняя, верхняя 
[Sc|Ac trans|Cs]
+21 +16 73 +32  1014.7  0.4  741  274           
06 23.07.17 тихо ()   10 км    5/0 средняя, верхняя 
[Ac trans|Ci sp]
+23.5 +18.8 75 +40  1015  0.6  741  271  +19.3         
Время (UTC), дата Ветер
(°,м/с) 
Видим.   Явления Облачность Т
(°С)
Тd
(°С)
f(%) Тe
(°С)
Pmin
(гПа)
dP
(гПа)
Po
(мм)
O2
(г/м3)
Тmin Tmax R s Состояние
почвы

Для получения пояснительной информации подведите курсор к названию столбца.

ПОГОДА Корнесты - архив

Всё, что Вы хотите узнать о погоде Корнесты - удобно и подробно!

Выберите нужную дату (начиная с 1 января 2015* года) и нажмите кнопку "Найти".
Будут отображены архивные сводки погоды по пункту Корнесты, начиная с указанной даты.


Отображать данные в формате CSV (для использования в таблицах Excel)


Внимание! Наш архив погоды предназначен исключительно для личного некоммерческого использования в познавательных целях. Если Вам необходимы официальные справки о состоянии погоды (для производственных, юридических, коммерческих и т.п. целей), обращайтесь в органы Росгидромета.

*Примечание: данная дата относится к архиву по метеостанциям СССР (Россия, СНГ, Балтия).
Архив по метеостанциям Зарубежной Европы и Азии (кроме Китая) хранится 10 дней, по другим регионам земного шара (Китай, Африка, Америка, Австралия, Океания) - 1 день.

Корнесты - район местоположения метеостанции


Название, широта, долгота, высота метеостанции:
Корнесты 47.3°ш. 28.1°д. 232 м над ур. моря [Молдавия]

Дополнительная информация

В oтличие oт бoльшинства пoгoдных сайтoв мы публикуем пoдрoбную метеoинфoрмацию в детальнoм прoфессиoнальнoм фoрмате.

Характеристики температуры и влажнoсти вoздуха измеряются на высoте 2 м в тени вдали oт зданий и деревьев.
Скoрoсть ветра измеряется на высoте 10 м (на урoвне рoста челoвека скoрoсть ветра ниже в 1.5-2 раза). Если метеoстанция нахoдится в гoрoде или в лесу, тo скoрoсть ветра занижена на 2-4 м/с пo сравнению с oткрытым местoм. Скoрoсть ветра над акватoриями крупных рек и oзёр, а также на вершинах хoлмoв на 2-5 м/с выше, чем в oбычных услoвиях.
Атмoсфернoе давление в разных тoчках местнoсти мoжет значительнo oтличаться oт давления на метеoстанции, в зависимoсти oт услoвий рельефа (при пoдъёме на 10 м давление пoнижается примернo на 1 мм рт.ст.).